Location: Newark
(16.3678°N, 77.8722°E)
Time: 02:26:53
(UTC+00:00)

S-56A Canister/Altair - Pass Details

Date: 15 December 2019
Orbit: 634 x 2498 km, 38.9° (Epoch: 26 January)

Event Time Altitude Azimuth Distance (km) Brightness Sun altitude
Rises 03:11:51 0° 259° (W) 4,856 11.2 24.9°
Reaches altitude 10° 03:14:55 10° 266° (W) 4,105 10.9 25.5°
Maximum altitude 03:25:52 45° 335° (NNW) 2,819 10.3 27.6°
Drops below altitude 10° 03:39:52 10° 44° (NE) 5,154 11.9 30.2°
Sets 03:44:19 0° 51° (NE) 6,165 12.3 31.0°
